{"data":{"norad_id":65320,"intl_designator":"2025-188F","name":"FFLY01","alt_names":[],"object_type":"PAYLOAD","status":"ACTIVE","operator":null,"country":"IND","launch_date":"2025-08-26","launch_site_code":"AFWTR","launch_vehicle":null,"mission":null,"orbit_class":"UNKNOWN","rcs_meters":null,"size_class":null,"mass_kg":null,"dimensions":null,"purposes":[],"wikipedia_slug":null,"has_3d_model":false,"image_url":null,"decayed_at":null,"tle_current":{"epoch":"2026-05-25T04:15:07.614144Z","epoch_age_seconds":66583,"freshness":"FRESH","line1":"1 65320U 25188F   26145.17717146  .00001083  00000+0  11074-3 0  9999","line2":"2 65320  97.7380 220.8045 0008274 247.8983 112.1358 14.92566928 40473","mean_motion":14.92566928,"eccentricity":0.0008274,"inclination_deg":97.738,"raan_deg":220.8045,"arg_perigee_deg":247.8983,"mean_anomaly_deg":112.1358,"bstar":0.00011074,"rev_number":4047,"period_min":96.478085704978,"perigee_km":584.16965275292,"apogee_km":595.70041835736,"semimajor_km":6968.0720355551,"source":"CELESTRAK","updated_at":"2026-05-25T13:38:05.324986Z"}}}